Zurück zum Katalog

PRAETORIAN SDA_517

AktivPO
NORAD 100075·PAYLOAD·🇺🇸 United States

Gestartet Jul 16, 2026 von Vandenberg Space Force Base

Loading…

Nächste Überflüge (nächste 24 Stunden)

TLE

AktuellSource: Space-Track

Epoche: Sep 14, 2026, 17:43 UTC

1 A0075U 26163S   26257.73846211  .00000133  00000-0  10433-3 0  9995
2 A0075  81.4773 255.1614 0017528  56.3130 303.9696 13.86148230  8302

Verfolge PRAETORIAN SDA_517 in Echtzeit mit AllMySat

Download on the App Store